User: anonymous   Login
Location: Munderkingen
(48.2395°N, 9.6433°E)
Time: 10:37:41
(UTC+01:00)
Language:

ISS - Orbit

View from above orbital plane
View from above orbital plane
View from above satellite
View from above satellite

Ground track
Ground track

The orbit data is extracted from the following two-line orbital elements,

1 25544U 98067A   18019.79282473  .00016717  00000-0  10270-3 0  9053
2 25544  51.6408  38.4930 0003543  22.5574 337.5734 15.54189589 15433
Epoch (UTC): 19 January 2018 19:01:40
Eccentricity: 0.0003543
inclination: 51.6408°
perigee height: 402 km
apogee height: 407 km
right ascension of ascending node: 38.4930°
argument of perigee: 22.5574°
revolutions per day: 15.54189589
mean anomaly at epoch: 337.5734°
orbit number at epoch: 1543

The dashed part of the orbit path shows where the satellite is in the earth's shadow,  

DLR